KSEAKNUW

Guest
Details From KSEA - Seattle Tacoma Intl
To KNUW - Whidbey Island Nas
Flight Number -
Tags Generated
Created
Modified
Stats Distance 56 nm / 103 km
Max Altitude 0 ft / 0 m
Waypoints 2
Social Downloads 1
Likes 0
Share VATSIM

Download

Looking for another format? Having issues loading an existing format? Contact us
Advertisement - Login to hide

Notes

Generated

Route

KSEA KNUW

ID Type Via Altitude Latitude Longitude Leg Dist Tot Dist Heading (true) Name
O KSEA APT - 0 ft / 0 m 47.46383˚ -122.31786˚ - 0 nm - -
O KNUW APT - 0 ft / 0 m 48.36167˚ -122.66246˚ 55 nm 55 nm 346° / 345° -

Altitude Profile

KSEA

Details ICAO KSEA (SEA)
Name Seattle Tacoma Intl
Region United States
Timezone America/Los_Angeles (UTC-8.0)
Stats Elevation 433 ft / 132 m (AMSL)
Location 47.450188° -122.312320°
Runways 3
Magnetic Variation 15.799° E

METAR

KSEA 202232Z 21006KT 8SM -RA SCT005 BKN018 OVC024 07/06 A2965

Decode

TAF

TAF AMD KSEA 202103Z 2021/2124 32005KT 6SM -RA BR BKN007 OVC018 FM202300 22011G18KT 4SM -RA BR BKN010 OVC018 FM210200 19008KT P6SM VCSH SCT012 BKN018 OVC030 FM210700 13004KT P6SM SCT018 BKN025 OVC040 FM211400 02008KT P6SM SCT020 BKN040 OVC060 FM212200 36010KT P6SM FEW030 SCT060 BKN120

Decode

Departure Runways

ID Width Length Bearing (true) Bearing (mag) Surface Threshold Offset Overrun Length
16C 151 ft / 46 m 9,429 ft / 2,874 m 180.34° 164.54° Concrete 0 ft / 0 m 223 ft / 68 m
16L 151 ft / 46 m 11,904 ft / 3,628 m 180.34° 164.54° Concrete 0 ft / 0 m 151 ft / 46 m
16R 151 ft / 46 m 8,503 ft / 2,592 m 180.34° 164.54° Concrete 0 ft / 0 m 164 ft / 50 m
34C 151 ft / 46 m 9,429 ft / 2,874 m 0.34° 344.54° Concrete 0 ft / 0 m 394 ft / 120 m
34L 151 ft / 46 m 8,503 ft / 2,592 m 0.34° 344.54° Concrete 0 ft / 0 m 394 ft / 120 m
34R 151 ft / 46 m 11,904 ft / 3,628 m 0.34° 344.54° Concrete 0 ft / 0 m 400 ft / 122 m

KNUW

Details ICAO KNUW (NUW)
Name WHIDBEY ISLAND NAS
Region United States
Timezone America/Los_Angeles (UTC-8.0)
Stats Elevation 47 ft / 14 m (AMSL)
Location 48.351803° -122.655907°
Runways 2
Magnetic Variation 16.086° E

METAR

KNUW 202156Z AUTO 36005KT 10SM BKN055 OVC075 11/02 A2963

Decode

TAF

Not found

Destination Runways

ID Width Length Bearing (true) Bearing (mag) Surface Threshold Offset Overrun Length
07 200 ft / 61 m 7,977 ft / 2,432 m 86.95° 70.86° Concrete 0 ft / 0 m 1,000 ft / 305 m
13 200 ft / 61 m 7,999 ft / 2,438 m 154.71° 138.62° Concrete 0 ft / 0 m 1,000 ft / 305 m
25 200 ft / 61 m 7,977 ft / 2,432 m 266.97° 250.88° Concrete 0 ft / 0 m 1,000 ft / 305 m
31 200 ft / 61 m 7,999 ft / 2,438 m 334.72° 318.63° Concrete 0 ft / 0 m 1,000 ft / 305 m

Approach Navaids

Runway Type Ident Frequency Range Bearing (true) Bearing (mag) Slope Elevation
13 Localiser INUW 110.10 MHz 18 nm / 33 km 154.72° 138.63° - 47 ft / 14 m (AMSL)
13 Glidescope INUW 110.10 MHz 10 nm / 19 km 154.71° 138.63° 3.00° 47 ft / 14 m (AMSL)

Popular Alternatives